[[{"header":{"parameterUnit":"m.s-1","parameterCategory":1,"la1":30.2992,"la2":30.254,"lo1":-89.0895,"lo2":-89.0443,"dy":0.0025,"dx":0.0025,"nx":19,"ny":19,"refTime":"2026-03-13T09:00:00:Z","depth":0,"parameterNumber":2,"parameterNumberName":"U-component_of_WINDS"},"data":[0,0,0,-0.7416,-0.7415,-0.7354,-0.7354,-0.7288,-0.7288,0,0,0,0,0,0,0,0,0,0,0,-0.7441,-0.7441,-0.7416,-0.7415,-0.7354,-0.7354,-0.7288,-0.7288,0,0,0,0,0,0,0,0,0,0,0,-0.7441,-0.7441,-0.744,-0.7415,-0.7354,-0.7354,-0.7288,-0.733,0,0,0,0,0,0,0,0,0,0,-0.7387,-0.7416,-0.7441,-0.744,-0.7414,-0.7355,-0.7354,-0.7332,-0.7327,-0.7321,0,-0.7316,0,-0.7301,-0.7284,-0.7284,0,0,0,-0.741,-0.742,-0.7398,-0.744,-0.7414,-0.7355,-0.738,-0.7329,-0.7324,-0.7315,-0.7315,-0.7312,-0.73,-0.7284,-0.7283,-0.7262,-0.7262,0,0,-0.7413,-0.7433,-0.7401,-0.7395,-0.7405,-0.7382,-0.7378,-0.7326,-0.7328,-0.7315,-0.7311,-0.7299,-0.7283,-0.7283,-0.7262,-0.7262,0,0,0,-0.7426,-0.7436,-0.7415,-0.7398,-0.7386,-0.7381,-0.7376,-0.733,-0.7321,-0.731,-0.7298,-0.7283,-0.7282,-0.7262,-0.7262,-0.7289,0,0,0,-0.7428,-0.7444,-0.7416,-0.7428,-0.7387,-0.7357,-0.7382,-0.7325,-0.7318,-0.7298,-0.7283,-0.7282,-0.7262,-0.7262,-0.7288,-0.7298,0,0,0,-0.7443,-0.7445,-0.7439,-0.743,-0.7404,-0.7357,-0.7346,-0.7323,-0.7311,-0.7284,-0.7282,-0.7261,-0.7262,-0.7287,-0.7296,-0.7298,0,0,0,-0.7464,-0.7463,-0.744,-0.7434,-0.7405,-0.7375,-0.7346,-0.7322,-0.7302,-0.7283,-0.7262,-0.7262,-0.7286,-0.7295,-0.7297,-0.7303,-0.7308,0,0,-0.7474,-0.7465,-0.746,-0.7438,-0.7417,-0.7383,-0.7366,-0.7327,-0.7306,-0.7278,-0.7277,-0.7288,-0.7296,-0.7298,-0.7328,-0.7332,0,0,0,-0.747,-0.7467,-0.7457,-0.7439,-0.7411,-0.7387,-0.7349,-0.7336,-0.7311,-0.7296,-0.7289,-0.7293,-0.7294,-0.7296,-0.7299,-0.7298,-0.7264,-0.7264,-0.7264,-0.7512,-0.7486,-0.7477,-0.7444,-0.7427,-0.739,-0.7373,-0.7348,-0.7326,-0.7325,-0.7316,-0.7338,-0.7341,-0.7343,-0.7342,-0.7318,-0.7318,-0.7318,-0.7318,-0.7525,-0.7516,-0.7488,-0.7469,-0.7442,-0.7426,-0.7391,-0.7376,-0.7357,-0.7342,-0.7341,-0.7325,-0.7348,-0.7346,-0.732,-0.732,-0.7319,-0.7319,-0.7319,-0.7549,-0.754,-0.7524,-0.7496,-0.7478,-0.7445,-0.7429,-0.7405,-0.7382,-0.7381,-0.737,-0.7369,-0.7365,-0.7378,-0.7378,-0.7378,-0.7378,-0.7378,-0.7378,-0.7579,-0.7561,-0.755,-0.7521,-0.7508,-0.7486,-0.745,-0.7436,-0.7414,-0.7398,-0.7397,-0.7376,-0.7355,-0.735,-0.7379,-0.7379,-0.7379,-0.7379,-0.7379,-0.76,-0.7592,-0.7575,-0.7562,-0.7527,-0.7511,-0.7481,-0.7455,-0.744,-0.7433,-0.7412,-0.7401,-0.739,-0.7387,-0.7383,-0.7418,-0.7418,-0.7418,-0.7418,-0.7619,-0.7612,-0.759,-0.757,-0.7548,-0.752,-0.7504,-0.7477,-0.7447,-0.7437,-0.7429,-0.7421,-0.742,-0.7409,-0.7406,-0.7401,-0.744,-0.744,-0.744,-0.763,-0.762,-0.761,-0.7582,-0.7554,-0.753,-0.7514,-0.7493,-0.7458,-0.7441,-0.7428,-0.7427,-0.7415,-0.7412,-0.7393,-0.7388,-0.738,0,0]},{"header":{"parameterUnit":"m.s-1","parameterCategory":1,"la1":30.2992,"la2":30.254,"lo1":-89.0895,"lo2":-89.0443,"dy":0.0025,"dx":0.0025,"nx":19,"ny":19,"refTime":"2026-03-13T09:00:00:Z","depth":0,"parameterNumber":3,"parameterNumberName":"V-component_of_WINDS"},"data":[0,0,0,1.9483,1.9481,1.9413,1.9413,1.9318,1.9317,0,0,0,0,0,0,0,0,0,0,0,1.95,1.95,1.9483,1.9481,1.9413,1.9413,1.9318,1.9317,0,0,0,0,0,0,0,0,0,0,0,1.9501,1.95,1.9499,1.9481,1.9413,1.9413,1.9318,1.9372,0,0,0,0,0,0,0,0,0,0,1.9439,1.9453,1.95,1.9499,1.9481,1.9413,1.9413,1.9374,1.9368,1.9346,0,1.9327,0,1.9321,1.931,1.931,0,0,0,1.9482,1.9458,1.9443,1.9499,1.948,1.9414,1.9444,1.9371,1.9364,1.9338,1.9326,1.9323,1.9319,1.9309,1.9309,1.9181,1.918,0,0,1.9486,1.9486,1.9447,1.9438,1.9451,1.9446,1.9442,1.9367,1.9353,1.9326,1.932,1.9318,1.9309,1.9308,1.9182,1.9181,0,0,0,1.9496,1.9489,1.9475,1.9442,1.9431,1.9444,1.9439,1.9356,1.9352,1.9319,1.9316,1.9308,1.9307,1.9182,1.9181,1.915,0,0,0,1.9498,1.9495,1.9477,1.9476,1.9432,1.9393,1.9431,1.9357,1.9349,1.9317,1.9308,1.9306,1.9183,1.9182,1.9152,1.9134,0,0,0,1.9506,1.9495,1.9485,1.9476,1.9447,1.9394,1.9386,1.9356,1.9347,1.931,1.9306,1.9184,1.9182,1.9155,1.9138,1.91,0,0,0,1.9513,1.9457,1.9485,1.9421,1.9448,1.9377,1.9386,1.9333,1.9297,1.9308,1.9183,1.9182,1.9155,1.914,1.9102,1.9068,1.9054,0,0,1.9442,1.9448,1.9411,1.9434,1.9358,1.9387,1.9306,1.9272,1.9267,1.9209,1.9206,1.9152,1.9138,1.9101,1.8978,1.8967,0,0,0,1.9388,1.9361,1.9341,1.9309,1.9284,1.9259,1.9238,1.9226,1.9178,1.9238,1.9129,1.912,1.9098,1.9082,1.9072,1.9053,1.9174,1.9175,1.9175,1.9287,1.9286,1.9224,1.9215,1.9183,1.9163,1.9136,1.9115,1.9121,1.9096,1.9078,1.9004,1.8985,1.8978,1.8958,1.9061,1.9061,1.9061,1.9061,1.9182,1.9143,1.9156,1.91,1.9099,1.905,1.9028,1.9035,1.8988,1.9017,1.8998,1.9028,1.8966,1.8948,1.9058,1.9059,1.9059,1.9059,1.9059,1.9114,1.9096,1.9083,1.9037,1.9,1.8992,1.8948,1.8948,1.8947,1.8928,1.8909,1.8909,1.8909,1.8919,1.8919,1.8919,1.8919,1.8918,1.8918,1.9048,1.9036,1.9,1.8969,1.8948,1.8921,1.89,1.8879,1.8855,1.8858,1.8858,1.8866,1.8961,1.8984,1.8914,1.8915,1.8916,1.8916,1.8916,1.894,1.8965,1.8909,1.8889,1.8852,1.8816,1.8818,1.8774,1.8757,1.8734,1.8747,1.8818,1.8823,1.8831,1.8849,1.8749,1.8749,1.8749,1.8749,1.8882,1.8886,1.8829,1.8796,1.8764,1.876,1.8694,1.8678,1.8664,1.8653,1.8667,1.8693,1.8701,1.8701,1.8711,1.8729,1.86,1.86,1.86,1.8814,1.8816,1.8761,1.8751,1.8723,1.8698,1.8636,1.8595,1.8585,1.8594,1.8643,1.8649,1.8691,1.8705,1.8713,1.8729,1.8761,0,0]}]]